Location: C�an Torras
(41.5052°N, 1.9280°E)
Time: 02:11:14
(UTC+00:00)

Cosmos 158 Rocket - Pass Details

Date: 20 January 2021
Orbit: 698 x 794 km, 74.0° (Epoch: 08 March)

Event Time Altitude Azimuth Distance (km) Brightness Sun altitude
Rises 18:15:44 0° 345° (NNW) 3,262 7.3 -15.3°
Reaches altitude 10° 18:18:12 10° 352° (N) 2,342 6.5 -15.7°
Maximum altitude 18:23:21 47° 66° (ENE) 1,042 4.2 -16.7°
Drops below altitude 10° 18:28:31 10° 139° (SE) 2,355 6.2 -17.6°
Sets 18:31:00 0° 146° (SE) 3,281 7.0 -18.1°
